Terug naar catalogus

CZ-6A DEB

ActiefSSO
NORAD 54452·DEBRIS·🇨🇳 China

Gelanceerd Nov 11, 2022 vanaf Taiyuan Satellite Launch Center

Loading…

Volgende Passages (komende 24 uur)

TLE

VersSource: Space-Track

Epoch: Sep 13, 2026, 21:01 UTC

1 54452U 22151GC  26256.87589772  .00000047  00000-0  68088-4 0  9990
2 54452  98.9963 222.7958 0148888 203.7418 155.6823 13.89074362194369

Volg CZ-6A DEB in realtime met AllMySat

Download on the App Store